Location: Del Amo
(33.8464°N, 118.2104°W)
Time: 07:14:59
(UTC+00:00)

Vanguard 1 Rocket - Pass Details

Date: 21 September 2024
Orbit: 650 x 4218 km, 34.3° (Epoch: 09 October)

Event Time Altitude Azimuth Distance (km) Brightness Sun altitude
Rises 14:56:09 0° 286° (WNW) 6,540 11.1 14.8°
Reaches altitude 10° 14:59:48 10° 284° (WNW) 5,892 11.0 15.5°
Maximum altitude 15:20:33 71° 206° (SSW) 4,222 11.0 19.7°
Drops below altitude 10° 15:46:19 10° 128° (SE) 7,034 13.4 24.9°
Sets 15:51:14 0° 126° (SE) 7,786 13.3 25.8°
